SCP
0 0 0 0 0 0 0 0 0 0 0 0 0 0 0 0 0 0 0 0 0 0 0 0 0 0 0 0 0 0 0 0 0 0 0 0 0 0 0 0 0 0 0 0 0
0 0 0 0 0 0 0 0 0 0 0 0 0 0 0 0 0 0 0 0 0 0 0 0 0 0 0 0 0 0 0 0 0 0 0 0 0 0 0 0 0 0 0 0 0
0 0 0 0 0 0 0 0 0 0 0 0 0 0 0 0 0 0 0 0 0 0 0 0 0 0 0 0 0 0 0 0 0 0 0 0 0 0 0 0 0 0 0 0 0
0 0 0 0 0 0 0 0 0 0 0 0 0 0 0 0 0 0 0 0 0 0 0 0 0 0 0 0 0 0 0 0 0 0 0 0 0 0 0 0 0 0 0 0 0
0 0 0 0 -0 0 0 0 0 0 0 0 0 0 0 0 0 0 0 0 0 0 0 0 0 0 0 0 0 0 0 0 0 0 0 0 0 0 0 0 0 0 0 0 0
0 0 0 0 0 -0 0 0 0 0 0 0 0 0 0 0 0 0 0 0 0 0 0 0 0 0 0 0 0 0 0 0 0 0 0 0 0 0 0 0 0 0 0 0 0
0 0 0 0 0 0 0 0 0 0 0 0 0 0 0 0 0 0 0 0 0 0 0 0 0 0 0 0 0 0 0 0 0 0 0 0 0 0 0 0 0 0 0 0 0
0 0 0 0 0 0 0 0 0 0 0 0 0 0 0 0 0 0 0 0 0 0 0 0 0 0 0 0 0 0 0 0 0 0 0 0 0 0 0 0 0 0 0 0 0
0 0 0 0 0 0 0 0 0 0 0 0 0 0 0 0 0 0 0 0 0 0 0 0 0 0 0 0 0 0 0 0 0 0 0 0 0 0 0 0 0 0 0 0 0
0 0 0 0 0 0 0 0 0 0 0 0 0 0 0 0 0 0 0 0 0 0 0 0 0 0 0 0 0 0 0 0 0 0 0 0 0 0 0 0 0 0 0 0 0
0 0 0 0 0 0 0 0 0 0 0 0 0 0 0 0 0 0 0 0 0 0 0 0 0 0 0 0 0 0 0 0 0 0 0 0 0 0 0 0 0 0 0 0 0
0 0 0 0 0 0 0 0 0 0 0 0 0 0 0 0 0 0 0 0 0 0 0 0 0 0 0 0 0 0 0 0 0 0 0 0 0 0 0 0 0 0 0 0 0
0 0 0 0 1 0 0 0 0 0 0 0 0 0 0 0 0 0 0 0 0 0 0 0 0 0 0 0 0 0 0 0 0 0 0 0 -0 0 0 0 0 0 0 0 0
0 0 0 0 0 0 0 0 0 0 0 0 0 0 0 0 0 0 0 0 0 0 0 0 0 0 0 0 0 0 0 0 0 0 0 0 -0 0 0 0 0 0 0 0 0
0 0 0 0 0 0 0 0 0 0 0 0 0 0 0 0 0 0 0 0 0 0 0 0 0 0 0 0 0 0 0 0 0 0 0 -0 0 -0 -0 0 0 0 0 0 0
0 0 0 0 0 0 0 0 0 0 0 0 0 0 0 0 0 0 0 0 0 0 0 0 0 0 0 0 0 0 0 0 0 0 0 0 0 -0 -0 -0 0 0 0 0 0
0 0 0 0 0 0 0 0 0 0 0 0 0 0 0 0 0 0 0 0 0 0 0 0 0 0 0 0 0 0 0 0 0 0 0 0 -0 0 0 -0 0 0 0 0 0
0 0 0 0 0 0 1 0 0 0 0 0 0 0 0 0 0 0 0 0 0 0 0 0 0 0 0 0 0 0 0 0 0 0 0 0 -0 -0 -0 0 0 0 0 0 0
0 0 0 0 0 0 0 0 0 0 0 0 0 0 0 0 0 0 0 0 0 0 0 0 0 0 0 0 0 0 0 0 0 0 0 0 0 0 0 0 0 0 0 0 0
0 0 0 0 0 0 0 0 0 0 0 0 0 0 0 0 0 0 0 0 0 0 0 0 0 0 0 0 0 0 0 0 0 0 0 0 -0 -0 0 0 0 0 0 0 0
0 0 0 0 1 0 0 0 0 0 0 0 0 0 0 0 0 0 0 0 0 0 0 0 0 0 0 0 0 0 0 0 0 0 0 0 0 0 0 0 0 0 0 0 0
0 0 0 1 0 0 0 0 0 0 0 0 0 0 0 0 0 0 0 0 0 0 0 0 0 0 0 0 0 0 0 0 0 0 0 0 0 0 -0 0 0 0 0 0 -0
0 0 0 0 0 0 0 0 0 0 0 0 0 0 0 0 0 0 0 0 0 0 0 0 0 0 0 0 0 0 0 0 0 0 0 0 0 0 0 0 0 0 0 0 0
0 0 0 0 0 0 0 0 0 0 0 0 0 0 0 0 0 0 0 0 0 0 0 0 0 0 0 0 0 0 0 0 0 0 0 0 0 0 0 0 0 0 0 0 -0
0 0 0 0 0 0 0 0 0 0 0 0 0 0 0 0 0 0 0 0 0 0 0 0 0 0 0 0 0 0 0 0 0 0 0 0 0 0 0 0 0 0 0 0 0
0 0 0 0 0 0 0 0 0 0 0 0 0 0 0 0 0 0 0 0 0 0 0 0 0 0 0 0 0 0 0 0 0 0 0 0 0 0 0 0 0 0 0 0 0
0 0 0 0 0 0 0 0 0 0 0 0 0 0 0 0 0 0 0 0 0 0 0 0 0 0 0 0 0 0 0 0 0 0 0 0 0 0 0 0 0 0 0 0 0
Wind_Speed_500mb
44 37 33 35 32 30 31 31 30 28 26 27 28 26 23 25 27 28 28 30 26 20 15 13 13 9 4 3 5 8 7 12 13 14 11 16 15 9 10 8 8 10 4 6 18
36 38 38 33 35 32 30 29 29 27 25 24 22 21 19 18 21 23 26 28 29 26 19 11 9 5 2 3 3 8 9 14 6 11 12 19 17 19 12 14 13 10 13 11 18
28 37 34 38 28 38 30 26 26 23 22 23 21 17 15 10 13 11 17 23 26 30 25 16 8 7 5 4 5 5 9 6 6 5 5 14 14 11 14 14 19 20 18 17 21
23 28 32 34 33 18 36 27 23 20 20 19 17 15 10 9 8 7 1 7 14 21 26 18 12 8 8 10 6 7 4 3 6 6 5 10 8 10 17 8 11 18 17 20 24
33 24 28 34 36 28 21 32 24 21 18 15 14 12 10 9 11 11 5 8 5 21 24 19 15 10 10 7 7 8 5 6 1 4 3 4 6 7 18 16 11 14 21 25 25
25 29 18 27 36 27 18 18 31 23 18 16 14 13 11 10 11 15 11 1 6 17 22 20 14 12 10 5 7 2 5 2 1 6 5 7 5 3 12 21 19 18 15 21 26
21 26 34 23 26 32 30 18 18 28 21 18 15 11 11 14 10 14 15 10 6 9 21 22 17 12 15 12 5 6 5 2 11 6 5 3 16 28 30 13 15 27 26 29 31
32 26 26 30 27 30 31 22 21 15 13 19 15 10 10 12 25 14 16 16 10 9 16 27 19 17 6 16 7 6 2 8 10 10 5 11 28 7 4 24 35 33 28 28 35
33 34 27 29 30 30 30 27 20 19 16 21 18 11 8 12 22 23 19 15 16 13 15 26 20 8 10 15 8 7 10 21 10 7 4 19 10 9 6 7 19 17 20 27 34
36 37 35 30 31 28 26 26 29 19 25 27 17 4 17 9 13 24 27 23 16 24 21 13 8 10 9 16 15 16 14 8 12 4 3 15 23 30 28 25 33 41 46 45 48
36 37 41 36 29 31 31 23 19 11 31 13 23 10 1 14 18 24 29 26 27 15 10 13 11 22 32 30 1 11 11 14 4 4 6 19 28 32 48 37 44 49 53 58 63
35 39 41 42 36 32 34 31 26 11 7 26 25 25 6 19 9 29 36 21 24 14 18 9 18 15 13 13 19 8 11 9 11 6 5 23 34 36 53 56 56 61 66 61 55
36 36 40 42 40 37 44 43 20 17 8 11 29 42 13 16 7 28 40 18 19 19 23 14 6 26 16 20 23 24 23 15 14 8 18 18 31 32 21 27 30 47 52 45 45
34 33 37 36 39 44 47 46 28 18 6 14 15 19 34 15 11 24 39 17 9 20 19 10 10 23 22 22 21 21 12 16 16 9 10 9 14 13 20 28 32 39 34 28 28
40 35 31 48 32 57 46 38 45 17 11 28 22 18 26 24 23 19 37 10 20 18 12 9 19 22 22 17 24 8 12 13 13 12 13 10 11 6 8 19 25 11 0 10 13
47 42 33 40 43 43 49 42 38 12 17 17 18 20 28 23 10 18 21 10 11 10 3 5 2 11 9 9 27 18 16 10 5 5 12 14 14 7 12 9 2 6 8 10 23
52 48 45 45 54 39 48 52 13 13 11 17 15 21 34 16 15 20 29 22 15 14 18 8 6 4 7 17 9 21 18 3 6 9 11 5 14 13 22 18 14 15 15 18 18
48 47 52 52 51 55 49 21 19 13 14 17 25 24 21 16 15 19 29 26 18 5 17 18 12 23 20 19 17 30 19 8 11 9 4 6 14 7 16 14 15 14 23 25 13
45 51 53 60 55 52 46 26 15 10 10 30 34 33 12 16 12 18 32 27 29 22 13 15 10 7 8 8 16 25 18 4 4 2 6 9 9 23 19 17 17 15 15 12 20
62 61 73 66 62 58 27 41 7 8 4 33 24 22 27 30 21 31 27 26 21 32 6 14 5 2 9 9 3 13 21 9 7 9 11 10 10 15 9 13 1 6 10 7 19
73 51 63 76 63 46 12 23 27 24 2 16 16 18 27 34 37 32 26 14 39 33 25 12 4 4 11 20 30 14 13 10 8 12 5 8 4 7 11 4 5 3 10 14 14
70 24 57 87 34 25 32 9 33 27 54 9 14 12 28 40 33 33 38 21 47 43 29 16 6 10 11 3 7 30 20 28 10 9 13 14 17 10 13 16 9 21 14 19 15
28 15 79 97 26 24 24 10 11 17 23 12 22 28 20 31 24 27 26 18 34 37 34 24 11 9 7 4 2 19 27 33 26 1 22 14 11 5 8 19 16 21 15 22 23
28 10 27 74 59 40 40 28 17 12 11 22 10 17 24 27 17 34 16 9 31 38 30 43 11 18 21 6 12 17 26 37 33 17 38 34 44 24 22 27 20 18 28 35 43
25 6 20 26 32 33 38 17 26 15 5 14 13 29 27 22 34 16 29 9 10 28 26 24 14 18 24 5 9 8 20 30 38 51 36 44 48 42 38 38 41 47 50 49 59
21 12 24 47 59 31 40 31 41 25 18 14 8 22 28 25 39 29 34 18 16 13 28 18 8 12 6 31 23 8 12 27 40 44 41 50 53 40 63 47 49 53 37 46 57
28 33 32 41 31 31 25 24 32 42 26 16 26 20 17 6 28 15 41 35 24 26 32 23 14 11 23 24 13 10 43 41 35 32 39 43 50 37 42 42 48 41 44 54 68
Wind_Direction_500mb
251 254 253 231 231 233 234 231 230 236 242 249 257 260 263 264 265 263 267 252 249 256 273 287 291 274 273 187 151 151 209 192 176 178 157 163 182 180 182 160 181 198 189 177 187
246 245 252 255 232 223 226 226 229 233 237 248 258 264 266 271 270 266 250 249 242 240 247 257 271 235 188 151 149 214 222 207 171 179 171 174 189 165 178 188 203 200 214 213 190
253 243 239 252 265 224 222 222 225 227 233 241 248 256 261 265 275 242 238 247 243 233 232 230 228 175 176 169 166 186 232 176 164 187 157 160 180 179 197 204 212 213 197 211 197
263 241 237 232 244 270 211 215 215 220 229 235 243 245 233 209 230 177 226 269 234 218 210 207 203 172 176 189 174 197 194 179 129 146 178 173 163 198 213 207 209 210 198 210 202
256 257 235 232 247 252 249 205 206 208 214 220 229 227 206 207 223 168 113 57 182 186 189 185 180 164 186 184 165 214 155 193 141 178 156 186 202 243 241 223 213 209 212 208 207
241 261 257 237 221 236 239 242 204 203 203 206 211 210 196 227 212 205 210 165 96 185 188 174 181 155 129 144 216 131 179 151 256 226 254 249 223 241 237 223 220 214 207 213 219
238 243 237 258 231 225 237 221 231 203 197 198 202 204 221 227 206 202 198 178 142 160 189 183 163 158 147 135 127 110 163 170 229 223 247 205 239 239 246 240 227 237 236 235 241
224 232 230 233 242 224 226 220 231 231 206 189 198 205 242 224 219 192 190 178 149 146 171 172 155 141 121 125 86 167 296 233 158 200 219 198 251 190 210 238 249 247 248 253 246
232 225 224 220 244 235 225 219 214 215 210 195 188 195 251 227 222 205 190 178 176 155 144 165 150 117 130 157 140 201 223 223 250 189 180 210 244 222 88 222 251 249 251 261 265
237 228 218 212 233 227 222 214 211 204 200 174 164 197 230 218 201 192 179 167 148 142 120 137 139 170 164 183 204 194 211 224 227 102 220 238 248 270 269 267 270 273 272 269 268
239 228 222 209 206 219 209 180 171 206 192 184 193 193 280 184 165 174 173 166 155 158 164 167 182 200 193 200 164 166 188 209 227 20 317 263 270 270 273 275 273 269 264 264 261
244 231 221 214 207 209 216 193 194 189 168 183 214 209 179 169 157 175 169 166 168 176 141 154 224 190 200 181 197 160 158 204 268 282 267 283 276 270 270 267 263 265 264 260 266
237 232 222 213 206 208 216 210 191 165 141 194 199 208 204 194 216 190 179 168 181 166 187 191 126 182 164 177 196 218 229 227 261 280 266 290 270 256 254 253 252 255 260 263 261
240 229 216 208 210 207 208 212 190 183 244 184 208 221 206 177 238 195 179 164 160 189 178 222 149 162 183 189 196 218 213 223 245 280 267 359 294 247 275 279 258 260 263 271 274
236 227 211 204 202 208 213 200 212 163 219 169 165 185 189 180 139 178 174 159 164 159 176 161 177 162 181 195 192 208 186 199 222 243 294 203 246 275 250 261 267 287 332 57 1
234 228 219 208 206 211 207 196 192 193 213 163 145 169 156 182 153 142 169 160 125 123 73 127 111 201 186 168 181 147 138 127 182 238 251 224 226 205 217 214 107 124 122 348 346
233 229 224 217 211 197 199 183 207 225 164 159 172 169 170 160 144 179 181 172 165 157 184 163 176 163 166 125 181 179 168 155 218 209 256 123 216 288 254 242 257 302 308 313 307
229 224 222 223 214 199 189 197 223 137 185 161 156 155 183 143 184 182 170 191 210 141 158 175 213 196 184 205 182 191 186 214 234 218 295 158 238 256 286 306 268 278 288 289 274
228 223 221 217 212 204 202 222 214 152 170 148 145 162 178 176 178 166 187 196 199 188 191 180 235 208 183 162 171 181 212 108 93 126 272 218 241 282 274 276 265 280 298 278 234
220 213 222 212 206 204 191 225 224 181 162 157 158 175 175 174 181 186 175 203 192 193 214 187 165 336 155 188 225 194 160 185 220 227 239 229 249 236 176 157 89 67 19 279 232
210 198 219 209 197 201 236 208 218 213 34 208 177 170 186 174 190 191 192 176 196 187 186 154 213 89 163 212 192 170 185 209 222 220 268 306 248 212 251 261 115 37 15 357 277
204 196 191 189 174 203 222 230 212 191 224 292 211 145 181 177 181 186 198 209 197 164 190 174 165 171 190 49 280 216 217 205 207 190 236 271 251 172 189 158 309 277 254 321 301
187 153 176 175 180 200 206 229 190 170 171 166 231 198 176 174 186 198 202 202 169 176 175 168 196 163 181 171 157 216 215 220 227 12 225 221 246 60 238 286 299 308 308 323 312
171 167 156 178 191 193 193 209 189 161 157 167 253 177 177 183 204 193 196 190 184 184 175 173 171 217 223 190 169 205 211 215 213 224 243 235 259 243 259 277 282 306 299 304 301
172 203 156 164 184 187 189 178 181 179 152 148 212 209 166 180 186 196 186 158 172 190 178 182 211 217 231 191 184 216 220 216 215 230 234 251 257 263 267 268 284 274 273 275 279
133 158 166 173 170 152 191 206 199 193 166 171 154 195 192 186 194 187 173 184 174 180 184 179 197 189 250 236 230 235 230 231 224 239 248 255 265 267 270 281 270 266 267 269 269
124 144 141 156 166 179 189 179 184 197 216 221 186 177 211 254 220 203 172 178 161 170 187 181 177 173 246 237 236 230 234 237 238 238 235 247 250 270 272 261 256 265 260 257 259
Wind_Speed_850mb
44 37 33 35 32 30 31 31 30 28 26 27 28 26 23 25 27 28 28 30 26 20 15 13 13 9 4 3 5 8 7 12 13 14 11 16 15 9 10 8 8 10 4 6 18
36 38 38 33 35 32 30 29 29 27 25 24 22 21 19 18 21 23 26 28 29 26 19 11 9 5 2 3 3 8 9 14 6 11 12 19 17 19 12 14 13 10 13 11 18
28 37 34 38 28 38 30 26 26 23 22 23 21 17 15 10 13 11 17 23 26 30 25 16 8 7 5 4 5 5 9 6 6 5 5 14 14 11 14 14 19 20 18 17 21
23 28 32 34 33 18 36 27 23 20 20 19 17 15 10 9 8 7 1 7 14 21 26 18 12 8 8 10 6 7 4 3 6 6 5 10 8 10 17 8 11 18 17 20 24
33 24 28 34 36 28 21 32 24 21 18 15 14 12 10 9 11 11 5 8 5 21 24 19 15 10 10 7 7 8 5 6 1 4 3 4 6 7 18 16 11 14 21 25 25
25 29 18 27 36 27 18 18 31 23 18 16 14 13 11 10 11 15 11 1 6 17 22 20 14 12 10 5 7 2 5 2 1 6 5 7 5 3 12 21 19 18 15 21 26
21 26 34 23 26 32 30 18 18 28 21 18 15 11 11 14 10 14 15 10 6 9 21 22 17 12 15 12 5 6 5 2 11 6 5 3 16 28 30 13 15 27 26 29 31
32 26 26 30 27 30 31 22 21 15 13 19 15 10 10 12 25 14 16 16 10 9 16 27 19 17 6 16 7 6 2 8 10 10 5 11 28 7 4 24 35 33 28 28 35
33 34 27 29 30 30 30 27 20 19 16 21 18 11 8 12 22 23 19 15 16 13 15 26 20 8 10 15 8 7 10 21 10 7 4 19 10 9 6 7 19 17 20 27 34
36 37 35 30 31 28 26 26 29 19 25 27 17 4 17 9 13 24 27 23 16 24 21 13 8 10 9 16 15 16 14 8 12 4 3 15 23 30 28 25 33 41 46 45 48
36 37 41 36 29 31 31 23 19 11 31 13 23 10 1 14 18 24 29 26 27 15 10 13 11 22 32 30 1 11 11 14 4 4 6 19 28 32 48 37 44 49 53 58 63
35 39 41 42 36 32 34 31 26 11 7 26 25 25 6 19 9 29 36 21 24 14 18 9 18 15 13 13 19 8 11 9 11 6 5 23 34 36 53 56 56 61 66 61 55
36 36 40 42 40 37 44 43 20 17 8 11 29 42 13 16 7 28 40 18 19 19 23 14 6 26 16 20 23 24 23 15 14 8 18 18 31 32 21 27 30 47 52 45 45
34 33 37 36 39 44 47 46 28 18 6 14 15 19 34 15 11 24 39 17 9 20 19 10 10 23 22 22 21 21 12 16 16 9 10 9 14 13 20 28 32 39 34 28 28
40 35 31 48 32 57 46 38 45 17 11 28 22 18 26 24 23 19 37 10 20 18 12 9 19 22 22 17 24 8 12 13 13 12 13 10 11 6 8 19 25 11 0 10 13
47 42 33 40 43 43 49 42 38 12 17 17 18 20 28 23 10 18 21 10 11 10 3 5 2 11 9 9 27 18 16 10 5 5 12 14 14 7 12 9 2 6 8 10 23
52 48 45 45 54 39 48 52 13 13 11 17 15 21 34 16 15 20 29 22 15 14 18 8 6 4 7 17 9 21 18 3 6 9 11 5 14 13 22 18 14 15 15 18 18
48 47 52 52 51 55 49 21 19 13 14 17 25 24 21 16 15 19 29 26 18 5 17 18 12 23 20 19 17 30 19 8 11 9 4 6 14 7 16 14 15 14 23 25 13
45 51 53 60 55 52 46 26 15 10 10 30 34 33 12 16 12 18 32 27 29 22 13 15 10 7 8 8 16 25 18 4 4 2 6 9 9 23 19 17 17 15 15 12 20
62 61 73 66 62 58 27 41 7 8 4 33 24 22 27 30 21 31 27 26 21 32 6 14 5 2 9 9 3 13 21 9 7 9 11 10 10 15 9 13 1 6 10 7 19
73 51 63 76 63 46 12 23 27 24 2 16 16 18 27 34 37 32 26 14 39 33 25 12 4 4 11 20 30 14 13 10 8 12 5 8 4 7 11 4 5 3 10 14 14
70 24 57 87 34 25 32 9 33 27 54 9 14 12 28 40 33 33 38 21 47 43 29 16 6 10 11 3 7 30 20 28 10 9 13 14 17 10 13 16 9 21 14 19 15
28 15 79 97 26 24 24 10 11 17 23 12 22 28 20 31 24 27 26 18 34 37 34 24 11 9 7 4 2 19 27 33 26 1 22 14 11 5 8 19 16 21 15 22 23
28 10 27 74 59 40 40 28 17 12 11 22 10 17 24 27 17 34 16 9 31 38 30 43 11 18 21 6 12 17 26 37 33 17 38 34 44 24 22 27 20 18 28 35 43
25 6 20 26 32 33 38 17 26 15 5 14 13 29 27 22 34 16 29 9 10 28 26 24 14 18 24 5 9 8 20 30 38 51 36 44 48 42 38 38 41 47 50 49 59
21 12 24 47 59 31 40 31 41 25 18 14 8 22 28 25 39 29 34 18 16 13 28 18 8 12 6 31 23 8 12 27 40 44 41 50 53 40 63 47 49 53 37 46 57
28 33 32 41 31 31 25 24 32 42 26 16 26 20 17 6 28 15 41 35 24 26 32 23 14 11 23 24 13 10 43 41 35 32 39 43 50 37 42 42 48 41 44 54 68
Wind_Direction_850mb
251 254 253 231 231 233 234 231 230 236 242 249 257 260 263 264 265 263 267 252 249 256 273 287 291 274 273 187 151 151 209 192 176 178 157 163 182 180 182 160 181 198 189 177 187
246 245 252 255 232 223 226 226 229 233 237 248 258 264 266 271 270 266 250 249 242 240 247 257 271 235 188 151 149 214 222 207 171 179 171 174 189 165 178 188 203 200 214 213 190
253 243 239 252 265 224 222 222 225 227 233 241 248 256 261 265 275 242 238 247 243 233 232 230 228 175 176 169 166 186 232 176 164 187 157 160 180 179 197 204 212 213 197 211 197
263 241 237 232 244 270 211 215 215 220 229 235 243 245 233 209 230 177 226 269 234 218 210 207 203 172 176 189 174 197 194 179 129 146 178 173 163 198 213 207 209 210 198 210 202
256 257 235 232 247 252 249 205 206 208 214 220 229 227 206 207 223 168 113 57 182 186 189 185 180 164 186 184 165 214 155 193 141 178 156 186 202 243 241 223 213 209 212 208 207
241 261 257 237 221 236 239 242 204 203 203 206 211 210 196 227 212 205 210 165 96 185 188 174 181 155 129 144 216 131 179 151 256 226 254 249 223 241 237 223 220 214 207 213 219
238 243 237 258 231 225 237 221 231 203 197 198 202 204 221 227 206 202 198 178 142 160 189 183 163 158 147 135 127 110 163 170 229 223 247 205 239 239 246 240 227 237 236 235 241
224 232 230 233 242 224 226 220 231 231 206 189 198 205 242 224 219 192 190 178 149 146 171 172 155 141 121 125 86 167 296 233 158 200 219 198 251 190 210 238 249 247 248 253 246
232 225 224 220 244 235 225 219 214 215 210 195 188 195 251 227 222 205 190 178 176 155 144 165 150 117 130 157 140 201 223 223 250 189 180 210 244 222 88 222 251 249 251 261 265
237 228 218 212 233 227 222 214 211 204 200 174 164 197 230 218 201 192 179 167 148 142 120 137 139 170 164 183 204 194 211 224 227 102 220 238 248 270 269 267 270 273 272 269 268
239 228 222 209 206 219 209 180 171 206 192 184 193 193 280 184 165 174 173 166 155 158 164 167 182 200 193 200 164 166 188 209 227 20 317 263 270 270 273 275 273 269 264 264 261
244 231 221 214 207 209 216 193 194 189 168 183 214 209 179 169 157 175 169 166 168 176 141 154 224 190 200 181 197 160 158 204 268 282 267 283 276 270 270 267 263 265 264 260 266
237 232 222 213 206 208 216 210 191 165 141 194 199 208 204 194 216 190 179 168 181 166 187 191 126 182 164 177 196 218 229 227 261 280 266 290 270 256 254 253 252 255 260 263 261
240 229 216 208 210 207 208 212 190 183 244 184 208 221 206 177 238 195 179 164 160 189 178 222 149 162 183 189 196 218 213 223 245 280 267 359 294 247 275 279 258 260 263 271 274
236 227 211 204 202 208 213 200 212 163 219 169 165 185 189 180 139 178 174 159 164 159 176 161 177 162 181 195 192 208 186 199 222 243 294 203 246 275 250 261 267 287 332 57 1
234 228 219 208 206 211 207 196 192 193 213 163 145 169 156 182 153 142 169 160 125 123 73 127 111 201 186 168 181 147 138 127 182 238 251 224 226 205 217 214 107 124 122 348 346
233 229 224 217 211 197 199 183 207 225 164 159 172 169 170 160 144 179 181 172 165 157 184 163 176 163 166 125 181 179 168 155 218 209 256 123 216 288 254 242 257 302 308 313 307
229 224 222 223 214 199 189 197 223 137 185 161 156 155 183 143 184 182 170 191 210 141 158 175 213 196 184 205 182 191 186 214 234 218 295 158 238 256 286 306 268 278 288 289 274
228 223 221 217 212 204 202 222 214 152 170 148 145 162 178 176 178 166 187 196 199 188 191 180 235 208 183 162 171 181 212 108 93 126 272 218 241 282 274 276 265 280 298 278 234
220 213 222 212 206 204 191 225 224 181 162 157 158 175 175 174 181 186 175 203 192 193 214 187 165 336 155 188 225 194 160 185 220 227 239 229 249 236 176 157 89 67 19 279 232
210 198 219 209 197 201 236 208 218 213 34 208 177 170 186 174 190 191 192 176 196 187 186 154 213 89 163 212 192 170 185 209 222 220 268 306 248 212 251 261 115 37 15 357 277
204 196 191 189 174 203 222 230 212 191 224 292 211 145 181 177 181 186 198 209 197 164 190 174 165 171 190 49 280 216 217 205 207 190 236 271 251 172 189 158 309 277 254 321 301
187 153 176 175 180 200 206 229 190 170 171 166 231 198 176 174 186 198 202 202 169 176 175 168 196 163 181 171 157 216 215 220 227 12 225 221 246 60 238 286 299 308 308 323 312
171 167 156 178 191 193 193 209 189 161 157 167 253 177 177 183 204 193 196 190 184 184 175 173 171 217 223 190 169 205 211 215 213 224 243 235 259 243 259 277 282 306 299 304 301
172 203 156 164 184 187 189 178 181 179 152 148 212 209 166 180 186 196 186 158 172 190 178 182 211 217 231 191 184 216 220 216 215 230 234 251 257 263 267 268 284 274 273 275 279
133 158 166 173 170 152 191 206 199 193 166 171 154 195 192 186 194 187 173 184 174 180 184 179 197 189 250 236 230 235 230 231 224 239 248 255 265 267 270 281 270 266 267 269 269
124 144 141 156 166 179 189 179 184 197 216 221 186 177 211 254 220 203 172 178 161 170 187 181 177 173 246 237 236 230 234 237 238 238 235 247 250 270 272 261 256 265 260 257 259